LMJ040 LPMA-LPPD

Flight info

Callsign LMJ040
Flight time N/A
Altitude 38000
Route GALOZ DCT IRKID DCT 35N020W DCT ETROX DCT VSM
Aircraft A20N/M-SDE2E3FGHIRWXY/LB1

Departure

Time 2026-05-07 22:59
Airport Cristiano Ronaldo International Airport (LPMA)

Arrival

Time N/A
Airport João Paulo II Airport (LPPD)
Time Latitude Longitude Altitude Speed Heading
2026-05-07 22:25 32.69381 -16.77627 176 ft 0 kts 139°
2026-05-07 22:48 32.69386 -16.77632 176 ft 2 kts 129°
2026-05-07 22:48 32.69396 -16.77645 176 ft 2 kts 140°
2026-05-07 22:48 32.69405 -16.77654 176 ft 0 kts 136°
2026-05-07 22:48 32.69413 -16.77666 176 ft 2 kts 113°
2026-05-07 22:49 32.69417 -16.77684 176 ft 2 kts 88°
2026-05-07 22:49 32.69414 -16.77701 176 ft 2 kts 62°
2026-05-07 22:49 32.69409 -16.77710 176 ft 1 kts 47°
2026-05-07 22:49 32.69404 -16.77715 175 ft 0 kts 45°
2026-05-07 22:51 32.69405 -16.77714 175 ft 0 kts 45°
2026-05-07 22:52 32.69408 -16.77711 175 ft 0 kts 45°
2026-05-07 22:52 32.69411 -16.77707 176 ft 0 kts 45°
2026-05-07 22:52 32.69415 -16.77702 176 ft 0 kts 45°
2026-05-07 22:52 32.69420 -16.77696 176 ft 1 kts 45°
2026-05-07 22:53 32.69428 -16.77687 176 ft 2 kts 45°
2026-05-07 22:53 32.69454 -16.77655 177 ft 8 kts 46°
2026-05-07 22:53 32.69512 -16.77581 180 ft 14 kts 47°
2026-05-07 22:53 32.69584 -16.77490 182 ft 15 kts 46°
2026-05-07 22:54 32.69660 -16.77395 186 ft 16 kts 46°
2026-05-07 22:54 32.69741 -16.77296 189 ft 15 kts 46°
2026-05-07 22:54 32.69820 -16.77201 195 ft 15 kts 37°
2026-05-07 22:54 32.69925 -16.77181 196 ft 16 kts 358°
2026-05-07 22:55 32.70032 -16.77154 197 ft 15 kts 40°
2026-05-07 22:55 32.70098 -16.77075 197 ft 15 kts 45°
2026-05-07 22:55 32.70180 -16.76979 198 ft 15 kts 44°
2026-05-07 22:55 32.70259 -16.76888 198 ft 16 kts 44°
2026-05-07 22:56 32.70343 -16.76793 199 ft 16 kts 44°
2026-05-07 22:56 32.70422 -16.76702 200 ft 16 kts 44°
2026-05-07 22:56 32.70504 -16.76607 201 ft 16 kts 45°
2026-05-07 22:56 32.70585 -16.76511 201 ft 16 kts 45°
2026-05-07 22:57 32.70664 -16.76446 202 ft 13 kts 11°
2026-05-07 22:57 32.70739 -16.76408 203 ft 9 kts 72°
2026-05-07 22:57 32.70707 -16.76370 203 ft 8 kts 202°
2026-05-07 22:57 32.70692 -16.76385 203 ft 0 kts 225°
2026-05-07 22:58 32.70584 -16.76512 202 ft 56 kts 224°
2026-05-07 22:58 32.70200 -16.76960 198 ft 113 kts 225°
2026-05-07 22:58 32.69509 -16.77770 189 ft 164 kts 225°
2026-05-07 22:58 32.68666 -16.78766 693 ft 169 kts 224°
2026-05-07 22:59 32.67684 -16.79441 1385 ft 168 kts 187°
2026-05-07 22:59 32.66552 -16.79201 2037 ft 172 kts 166°
2026-05-07 22:59 32.65409 -16.78751 2469 ft 186 kts 166°
2026-05-07 22:59 32.64120 -16.78292 2837 ft 201 kts 168°
2026-05-07 23:00 32.62673 -16.78077 3121 ft 219 kts 191°
2026-05-07 23:00 32.61200 -16.78690 3526 ft 233 kts 208°
2026-05-07 23:00 32.59760 -16.79702 3990 ft 247 kts 224°
2026-05-07 23:00 32.58786 -16.81380 4664 ft 252 kts 251°
2026-05-07 23:01 32.58549 -16.83411 5512 ft 252 kts 274°
2026-05-07 23:01 32.58761 -16.85451 6369 ft 254 kts 277°
2026-05-07 23:01 32.58987 -16.87520 7192 ft 256 kts 276°
2026-05-07 23:01 32.59214 -16.89610 8027 ft 258 kts 276°
2026-05-07 23:02 32.59439 -16.91727 8836 ft 261 kts 276°
2026-05-07 23:02 32.59664 -16.93858 9641 ft 263 kts 276°
2026-05-07 23:02 32.59889 -16.96004 10411 ft 266 kts 276°
2026-05-07 23:02 32.60121 -16.98238 10891 ft 280 kts 276°
2026-05-07 23:03 32.60359 -17.00541 11560 ft 286 kts 276°
2026-05-07 23:03 32.60600 -17.02864 12347 ft 286 kts 276°
2026-05-07 23:03 32.60840 -17.05211 13118 ft 288 kts 276°
2026-05-07 23:03 32.61084 -17.07573 13761 ft 293 kts 276°
2026-05-07 23:04 32.61401 -17.09981 14382 ft 299 kts 284°
2026-05-07 23:04 32.62345 -17.12182 15079 ft 307 kts 303°
2026-05-07 23:04 32.63935 -17.13927 15768 ft 319 kts 321°
2026-05-07 23:04 32.65857 -17.15288 16463 ft 322 kts 321°
2026-05-07 23:05 32.67680 -17.16587 17067 ft 325 kts 321°
2026-05-07 23:05 32.69586 -17.17950 17704 ft 327 kts 321°
2026-05-07 23:05 32.71604 -17.19391 18344 ft 330 kts 321°
2026-05-07 23:05 32.73580 -17.20800 18979 ft 331 kts 321°
2026-05-07 23:06 32.75564 -17.22217 19573 ft 334 kts 321°
2026-05-07 23:06 32.77572 -17.23646 20127 ft 338 kts 321°
2026-05-07 23:06 32.79526 -17.25043 20680 ft 340 kts 321°
2026-05-07 23:06 32.81574 -17.26504 21262 ft 342 kts 321°
2026-05-07 23:07 32.83637 -17.27976 21800 ft 345 kts 321°
2026-05-07 23:07 32.85702 -17.29449 22346 ft 347 kts 321°
2026-05-07 23:07 32.87791 -17.30939 22888 ft 350 kts 320°
2026-05-07 23:07 32.89892 -17.32442 23355 ft 353 kts 321°
2026-05-07 23:08 32.91985 -17.33940 23843 ft 356 kts 321°
2026-05-07 23:08 32.94086 -17.35444 24362 ft 357 kts 321°
2026-05-07 23:08 32.96216 -17.36967 24843 ft 359 kts 321°
2026-05-07 23:08 32.98381 -17.38517 25332 ft 361 kts 321°
2026-05-07 23:09 33.00546 -17.40067 25791 ft 363 kts 321°
2026-05-07 23:09 33.02720 -17.41628 26226 ft 365 kts 321°
2026-05-07 23:09 33.04908 -17.43200 26650 ft 367 kts 321°
2026-05-07 23:09 33.07097 -17.44774 27078 ft 369 kts 321°
2026-05-07 23:10 33.09306 -17.46366 27492 ft 370 kts 321°
2026-05-07 23:10 33.11518 -17.47958 27892 ft 372 kts 321°
2026-05-07 23:10 33.13749 -17.49565 28241 ft 375 kts 321°
2026-05-07 23:10 33.15991 -17.51182 28611 ft 377 kts 321°
2026-05-07 23:11 33.18238 -17.52806 28968 ft 379 kts 321°
2026-05-07 23:11 33.20445 -17.54396 29346 ft 380 kts 321°
2026-05-07 23:11 33.22676 -17.56011 29671 ft 382 kts 321°
2026-05-07 23:11 33.24980 -17.57674 30040 ft 383 kts 321°
2026-05-07 23:12 33.27277 -17.59334 30362 ft 385 kts 321°
2026-05-07 23:12 33.29566 -17.60990 30628 ft 387 kts 321°
2026-05-07 23:12 33.31861 -17.62655 30899 ft 389 kts 321°
2026-05-07 23:12 33.34193 -17.64342 31162 ft 391 kts 321°
2026-05-07 23:13 33.36521 -17.66030 31413 ft 393 kts 321°
2026-05-07 23:13 33.38856 -17.67729 31696 ft 394 kts 321°
2026-05-07 23:13 33.41203 -17.69428 32015 ft 395 kts 321°
2026-05-07 23:13 33.43540 -17.71127 32309 ft 395 kts 320°
2026-05-07 23:14 33.45900 -17.72840 32652 ft 393 kts 321°
2026-05-07 23:14 33.48210 -17.74516 33008 ft 391 kts 320°
2026-05-07 23:14 33.50480 -17.76168 33316 ft 391 kts 320°
2026-05-07 23:14 33.52837 -17.77885 33602 ft 390 kts 320°
2026-05-07 23:15 33.55169 -17.79585 33903 ft 389 kts 320°
2026-05-07 23:15 33.57419 -17.81226 34196 ft 388 kts 320°
2026-05-07 23:15 33.59692 -17.82884 34453 ft 387 kts 320°
2026-05-07 23:15 33.62007 -17.84575 34688 ft 386 kts 320°
2026-05-07 23:16 33.64303 -17.86254 34879 ft 386 kts 320°
2026-05-07 23:16 33.66484 -17.87847 35036 ft 386 kts 320°
2026-05-07 23:16 33.68653 -17.89435 35235 ft 386 kts 320°
2026-05-07 23:16 33.70988 -17.91144 35439 ft 385 kts 320°
2026-05-07 23:17 33.73285 -17.92828 35616 ft 384 kts 320°
2026-05-07 23:17 33.75426 -17.94398 35789 ft 384 kts 320°
2026-05-07 23:17 33.77688 -17.96055 35955 ft 383 kts 320°
2026-05-07 23:17 33.79981 -17.97737 36132 ft 383 kts 320°
2026-05-07 23:18 33.82247 -17.99401 36294 ft 383 kts 320°
2026-05-07 23:18 33.84523 -18.01074 36450 ft 383 kts 320°
2026-05-07 23:18 33.86751 -18.02834 36563 ft 381 kts 317°
2026-05-07 23:18 33.88877 -18.04749 36673 ft 379 kts 314°
2026-05-07 23:19 33.90889 -18.06801 36764 ft 377 kts 311°
2026-05-07 23:19 33.92772 -18.08967 36870 ft 376 kts 308°
2026-05-07 23:19 33.94571 -18.11299 37012 ft 374 kts 305°
2026-05-07 23:19 33.96232 -18.13727 37142 ft 372 kts 302°
2026-05-07 23:20 33.97743 -18.16221 37274 ft 370 kts 300°
2026-05-07 23:20 33.99207 -18.18764 37416 ft 369 kts 300°
2026-05-07 23:20 34.00672 -18.21321 37512 ft 370 kts 300°
2026-05-07 23:21 34.03593 -18.26439 37711 ft 371 kts 300°
2026-05-07 23:21 34.06513 -18.31570 37832 ft 372 kts 300°
2026-05-07 23:22 34.09448 -18.36733 37844 ft 373 kts 300°
2026-05-07 23:22 34.12218 -18.41620 37827 ft 373 kts 300°
2026-05-07 23:23 34.15270 -18.47015 37821 ft 373 kts 300°
2026-05-07 23:23 34.18139 -18.52088 37829 ft 373 kts 300°
2026-05-07 23:24 34.21065 -18.57271 37808 ft 373 kts 300°
2026-05-07 23:24 34.23985 -18.62452 37816 ft 373 kts 300°
2026-05-07 23:25 34.26915 -18.67660 37815 ft 372 kts 299°
2026-05-07 23:25 34.29826 -18.72841 37802 ft 373 kts 299°
2026-05-07 23:26 34.32740 -18.78039 37815 ft 373 kts 300°
2026-05-07 23:26 34.35634 -18.83204 37794 ft 373 kts 300°
2026-05-07 23:27 34.39994 -18.91000 37791 ft 374 kts 300°
2026-05-07 23:27 34.42915 -18.96232 37790 ft 375 kts 300°
2026-05-07 23:28 34.45832 -19.01466 37788 ft 375 kts 300°
2026-05-07 23:28 34.48666 -19.06554 37797 ft 376 kts 299°
2026-05-07 23:29 34.51578 -19.11795 37799 ft 374 kts 300°
2026-05-07 23:29 34.54478 -19.17019 37797 ft 375 kts 300°
2026-05-07 23:30 34.57293 -19.22098 37795 ft 375 kts 300°
2026-05-07 23:30 34.60293 -19.27519 37785 ft 377 kts 300°
2026-05-07 23:31 34.63215 -19.32803 37789 ft 377 kts 300°
2026-05-07 23:31 34.66138 -19.38102 37793 ft 377 kts 300°
2026-05-07 23:32 34.69057 -19.43402 37791 ft 378 kts 300°
2026-05-07 23:32 34.71988 -19.48733 37790 ft 378 kts 300°
2026-05-07 23:33 34.74911 -19.54061 37799 ft 378 kts 300°
2026-05-07 23:33 34.77831 -19.59384 37782 ft 379 kts 300°
2026-05-07 23:34 34.80755 -19.64719 37786 ft 380 kts 300°
2026-05-07 23:34 34.83657 -19.70030 37787 ft 380 kts 299°
2026-05-07 23:35 34.86573 -19.75368 37793 ft 380 kts 299°
2026-05-07 23:35 34.89498 -19.80728 37829 ft 380 kts 299°
2026-05-07 23:36 34.92416 -19.86088 37802 ft 378 kts 299°
2026-05-07 23:36 34.95322 -19.91432 37790 ft 379 kts 299°
2026-05-07 23:37 34.98219 -19.96807 37779 ft 378 kts 298°
2026-05-07 23:37 35.00789 -20.02382 37781 ft 376 kts 293°
2026-05-07 23:38 35.02985 -20.08171 37782 ft 376 kts 292°
2026-05-07 23:38 35.05150 -20.14007 37778 ft 377 kts 291°
2026-05-07 23:39 35.07309 -20.19840 37781 ft 378 kts 292°
2026-05-07 23:39 35.09469 -20.25689 37776 ft 377 kts 291°
2026-05-07 23:40 35.11617 -20.31531 37779 ft 377 kts 291°
2026-05-07 23:40 35.13773 -20.37390 37782 ft 379 kts 292°
2026-05-07 23:41 35.15929 -20.43265 37778 ft 380 kts 292°
2026-05-07 23:41 35.18066 -20.49111 37793 ft 379 kts 292°
2026-05-07 23:42 35.20215 -20.54978 37776 ft 379 kts 292°
2026-05-07 23:42 35.22366 -20.60876 37779 ft 380 kts 292°
2026-05-07 23:43 35.24496 -20.66722 37784 ft 380 kts 292°
2026-05-07 23:43 35.26655 -20.72650 37775 ft 379 kts 292°
2026-05-07 23:44 35.28791 -20.78548 37789 ft 379 kts 292°
2026-05-07 23:44 35.30929 -20.84448 37774 ft 379 kts 291°
2026-05-07 23:45 35.33070 -20.90378 37788 ft 380 kts 292°
2026-05-07 23:45 35.35203 -20.96285 37786 ft 380 kts 292°
2026-05-07 23:46 35.37327 -21.02192 37778 ft 382 kts 292°
2026-05-07 23:46 35.39466 -21.08134 37781 ft 382 kts 292°
2026-05-07 23:47 35.41599 -21.14085 37779 ft 382 kts 292°
2026-05-07 23:47 35.43734 -21.20045 37769 ft 382 kts 292°
2026-05-07 23:48 35.45861 -21.26000 37770 ft 382 kts 292°
2026-05-07 23:48 35.47990 -21.31974 37766 ft 383 kts 292°
2026-05-07 23:49 35.50116 -21.37944 37759 ft 383 kts 292°
2026-05-07 23:49 35.52242 -21.43930 37757 ft 384 kts 292°
2026-05-07 23:50 35.54374 -21.49933 37778 ft 383 kts 292°
2026-05-07 23:50 35.56499 -21.55932 37764 ft 382 kts 292°
2026-05-07 23:51 35.58616 -21.61926 37762 ft 383 kts 292°
2026-05-07 23:51 35.60736 -21.67941 37773 ft 383 kts 292°
2026-05-07 23:52 35.62849 -21.73945 37774 ft 384 kts 292°
2026-05-07 23:52 35.64960 -21.79955 37776 ft 383 kts 292°
2026-05-07 23:53 35.67070 -21.85980 37791 ft 384 kts 292°
2026-05-07 23:53 35.69175 -21.91996 37780 ft 384 kts 292°
2026-05-07 23:54 35.71288 -21.98043 37787 ft 385 kts 292°
2026-05-07 23:54 35.73395 -22.04092 37784 ft 385 kts 292°
2026-05-07 23:55 35.75504 -22.10154 37796 ft 385 kts 292°
2026-05-07 23:55 35.77605 -22.16213 37800 ft 385 kts 292°
2026-05-07 23:56 35.79697 -22.22247 37790 ft 385 kts 292°
2026-05-07 23:56 35.81793 -22.28315 37802 ft 384 kts 292°
2026-05-07 23:57 35.83881 -22.34367 37806 ft 383 kts 292°
2026-05-07 23:57 35.85953 -22.40383 37790 ft 383 kts 293°
2026-05-07 23:58 35.88027 -22.46418 37795 ft 384 kts 292°
2026-05-07 23:58 35.90113 -22.52496 37788 ft 385 kts 293°
2026-05-07 23:59 35.92192 -22.58570 37802 ft 385 kts 293°
2026-05-07 23:59 35.94273 -22.64666 37780 ft 385 kts 293°
2026-05-08 00:00 35.96347 -22.70749 37793 ft 385 kts 292°
2026-05-08 00:00 35.98426 -22.76859 37798 ft 386 kts 292°
2026-05-08 00:01 36.00502 -22.82974 37808 ft 385 kts 293°
2026-05-08 00:01 36.02574 -22.89085 37798 ft 385 kts 293°
2026-05-08 00:02 36.03083 -22.90591 37799 ft 385 kts 292°
2026-05-08 00:28 36.04843 -22.95798 37805 ft 385 kts 292°
2026-05-08 00:28 36.06930 -23.01977 37801 ft 385 kts 292°
2026-05-08 00:29 36.08985 -23.08081 37806 ft 385 kts 292°
2026-05-08 00:29 36.11049 -23.14225 37809 ft 386 kts 293°
2026-05-08 00:30 36.13096 -23.20335 37812 ft 386 kts 293°
2026-05-08 00:30 36.15150 -23.26468 37805 ft 386 kts 293°
2026-05-08 00:31 36.17202 -23.32608 37801 ft 386 kts 293°
2026-05-08 00:31 36.19250 -23.38755 37806 ft 386 kts 293°
2026-05-08 00:32 36.21285 -23.44872 37800 ft 386 kts 293°
2026-05-08 00:32 36.23333 -23.51040 37809 ft 385 kts 293°
2026-05-08 00:33 36.25358 -23.57154 37807 ft 386 kts 293°
2026-05-08 00:33 36.27387 -23.63296 37815 ft 386 kts 293°
2026-05-08 00:34 36.29124 -23.68561 37810 ft 386 kts 293°
2026-05-08 00:35 36.32328 -23.78288 37813 ft 386 kts 293°